Time,TemperatureF,DewpointF,PressureIn,WindDirection,WindDirectionDegrees,WindSpeedMPH,WindSpeedGustMPH,Humidity,HourlyPrecipIn,Conditions,Clouds,dailyrainin,SoftwareType,DateUTC
2013-02-10 00:00:00,30.1,26.7,29.89,SE,132,0.0,0.0,87,0.00,,,0.00,WUHU216DAVISVP2,2013-02-10 06:00:00,
2013-02-10 00:05:00,30.1,26.7,29.88,SE,132,0.0,4.0,87,0.00,,,0.00,WUHU216DAVISVP2,2013-02-10 06:05:00,
2013-02-10 00:10:00,30.0,26.6,29.88,SE,132,2.0,4.0,87,0.00,,,0.00,WUHU216DAVISVP2,2013-02-10 06:10:00,
2013-02-10 00:15:00,30.0,26.6,29.88,SE,132,0.0,3.0,87,0.00,,,0.00,WUHU216DAVISVP2,2013-02-10 06:15:00,
2013-02-10 00:20:00,30.0,26.6,29.88,SE,132,0.0,3.0,87,0.00,,,0.00,WUHU216DAVISVP2,2013-02-10 06:20:00,
2013-02-10 00:25:00,30.1,26.7,29.87,SE,132,0.0,3.0,87,0.00,,,0.00,WUHU216DAVISVP2,2013-02-10 06:25:00,
2013-02-10 00:30:00,30.1,26.7,29.87,SE,132,0.0,0.0,87,0.00,,,0.00,WUHU216DAVISVP2,2013-02-10 06:30:00,
2013-02-10 00:35:00,30.0,26.6,29.87,SE,132,0.0,0.0,87,0.00,,,0.00,WUHU216DAVISVP2,2013-02-10 06:35:00,
2013-02-10 00:40:00,30.0,26.6,29.86,SE,129,3.0,3.0,87,0.00,,,0.00,WUHU216DAVISVP2,2013-02-10 06:40:00,
2013-02-10 00:45:00,30.0,26.6,29.86,SE,129,0.0,4.0,87,0.00,,,0.00,WUHU216DAVISVP2,2013-02-10 06:45:00,
2013-02-10 00:50:00,30.0,26.6,29.86,SE,129,0.0,4.0,87,0.00,,,0.00,WUHU216DAVISVP2,2013-02-10 06:50:00,
2013-02-10 00:55:00,30.0,26.6,29.86,SE,129,0.0,0.0,87,0.00,,,0.00,WUHU216DAVISVP2,2013-02-10 06:55:00,
2013-02-10 01:00:00,30.1,26.7,29.86,SE,129,0.0,0.0,87,0.00,,,0.00,WUHU216DAVISVP2,2013-02-10 07:00:00,
2013-02-10 01:05:00,30.1,26.7,29.86,SE,129,0.0,0.0,87,0.00,,,0.00,WUHU216DAVISVP2,2013-02-10 07:05:00,
2013-02-10 01:10:00,30.1,26.7,29.85,SE,129,0.0,3.0,87,0.00,,,0.00,WUHU216DAVISVP2,2013-02-10 07:10:00,
2013-02-10 01:15:00,30.1,26.7,29.85,SE,129,0.0,3.0,87,0.00,,,0.00,WUHU216DAVISVP2,2013-02-10 07:15:00,
2013-02-10 01:20:00,30.0,26.6,29.85,SE,129,0.0,0.0,87,0.00,,,0.00,WUHU216DAVISVP2,2013-02-10 07:20:00,
2013-02-10 01:25:00,30.0,26.6,29.84,ESE,111,1.0,5.0,87,0.00,,,0.00,WUHU216DAVISVP2,2013-02-10 07:25:00,
2013-02-10 01:30:00,30.0,26.6,29.84,ESE,110,0.0,5.0,87,0.00,,,0.00,WUHU216DAVISVP2,2013-02-10 07:30:00,
2013-02-10 01:35:00,30.0,26.6,29.84,ESE,110,0.0,1.0,87,0.00,,,0.00,WUHU216DAVISVP2,2013-02-10 07:35:00,
2013-02-10 01:40:00,29.9,26.5,29.84,ESE,111,2.0,2.0,87,0.00,,,0.00,WUHU216DAVISVP2,2013-02-10 07:40:00,
2013-02-10 01:45:00,29.9,26.5,29.84,ESE,111,1.0,3.0,87,0.00,,,0.00,WUHU216DAVISVP2,2013-02-10 07:45:00,
2013-02-10 01:50:00,29.9,26.5,29.83,ESE,110,1.0,3.0,87,0.00,,,0.00,WUHU216DAVISVP2,2013-02-10 07:50:00,
2013-02-10 01:55:00,29.8,26.4,29.82,ESE,111,0.0,3.0,87,0.00,,,0.00,WUHU216DAVISVP2,2013-02-10 07:55:00,
2013-02-10 02:00:00,29.8,26.6,29.82,ENE,75,0.0,3.0,88,0.00,,,0.00,WUHU216DAVISVP2,2013-02-10 08:00:00,
2013-02-10 02:05:00,29.8,26.6,29.82,NE,41,1.0,3.0,88,0.00,,,0.00,WUHU216DAVISVP2,2013-02-10 08:05:00,
2013-02-10 02:10:00,29.9,26.7,29.82,ENE,71,0.0,4.0,88,0.00,,,0.00,WUHU216DAVISVP2,2013-02-10 08:10:00,
2013-02-10 02:15:00,29.9,26.7,29.82,East,98,0.0,4.0,88,0.00,,,0.00,WUHU216DAVISVP2,2013-02-10 08:15:00,
2013-02-10 02:20:00,30.0,26.8,29.83,East,98,0.0,0.0,88,0.00,,,0.00,WUHU216DAVISVP2,2013-02-10 08:20:00,
2013-02-10 02:25:00,30.0,26.8,29.83,East,98,0.0,0.0,88,0.00,,,0.00,WUHU216DAVISVP2,2013-02-10 08:25:00,
2013-02-10 02:30:00,29.9,26.7,29.83,East,98,0.0,0.0,88,0.00,,,0.00,WUHU216DAVISVP2,2013-02-10 08:30:00,
2013-02-10 02:35:00,29.9,26.7,29.83,East,86,1.0,5.0,88,0.00,,,0.00,WUHU216DAVISVP2,2013-02-10 08:35:00,
2013-02-10 02:40:00,29.8,26.6,29.83,ESE,113,0.0,5.0,88,0.00,,,0.00,WUHU216DAVISVP2,2013-02-10 08:40:00,
2013-02-10 02:45:00,29.8,26.6,29.83,ESE,113,0.0,5.0,88,0.00,,,0.00,WUHU216DAVISVP2,2013-02-10 08:45:00,
2013-02-10 02:50:00,29.7,26.5,29.83,ESE,111,0.0,4.0,88,0.00,,,0.00,WUHU216DAVISVP2,2013-02-10 08:50:00,
2013-02-10 02:55:00,29.7,26.5,29.82,ESE,111,0.0,0.0,88,0.00,,,0.00,WUHU216DAVISVP2,2013-02-10 08:55:00,
2013-02-10 03:00:00,29.7,26.8,29.82,ESE,111,0.0,0.0,89,0.00,,,0.00,WUHU216DAVISVP2,2013-02-10 09:00:00,
2013-02-10 03:05:00,29.7,26.8,29.82,ESE,111,0.0,0.0,89,0.00,,,0.00,WUHU216DAVISVP2,2013-02-10 09:05:00,
2013-02-10 03:10:00,29.6,26.7,29.82,East,83,0.0,0.0,89,0.00,,,0.00,WUHU216DAVISVP2,2013-02-10 09:10:00,
2013-02-10 03:15:00,29.6,26.7,29.81,ENE,78,0.0,0.0,89,0.00,,,0.00,WUHU216DAVISVP2,2013-02-10 09:15:00,
2013-02-10 03:20:00,29.6,26.7,29.81,East,81,0.0,0.0,89,0.00,,,0.00,WUHU216DAVISVP2,2013-02-10 09:20:00,
2013-02-10 03:25:00,29.6,26.7,29.81,ENE,78,0.0,0.0,89,0.00,,,0.00,WUHU216DAVISVP2,2013-02-10 09:25:00,
2013-02-10 03:30:00,29.5,26.6,29.80,NE,55,0.0,0.0,89,0.00,,,0.00,WUHU216DAVISVP2,2013-02-10 09:30:00,
2013-02-10 03:35:00,29.5,26.6,29.80,NE,38,0.0,0.0,89,0.00,,,0.00,WUHU216DAVISVP2,2013-02-10 09:35:00,
2013-02-10 03:40:00,29.4,26.5,29.79,NE,46,0.0,0.0,89,0.00,,,0.00,WUHU216DAVISVP2,2013-02-10 09:40:00,
2013-02-10 03:45:00,29.4,26.5,29.79,NE,47,0.0,0.0,89,0.00,,,0.00,WUHU216DAVISVP2,2013-02-10 09:45:00,
2013-02-10 03:50:00,29.4,26.5,29.79,NE,47,0.0,0.0,89,0.00,,,0.00,WUHU216DAVISVP2,2013-02-10 09:50:00,
2013-02-10 03:55:00,29.4,26.5,29.79,East,88,0.0,0.0,89,0.00,,,0.00,WUHU216DAVISVP2,2013-02-10 09:55:00,
2013-02-10 04:00:00,29.3,26.4,29.78,NE,45,0.0,0.0,89,0.00,,,0.00,WUHU216DAVISVP2,2013-02-10 10:00:00,
2013-02-10 04:05:00,29.3,26.4,29.78,NE,44,0.0,0.0,89,0.00,,,0.00,WUHU216DAVISVP2,2013-02-10 10:05:00,
2013-02-10 04:10:00,29.3,26.4,29.78,NE,34,0.0,0.0,89,0.00,,,0.00,WUHU216DAVISVP2,2013-02-10 10:10:00,
2013-02-10 04:15:00,29.3,26.4,29.77,ENE,61,0.0,0.0,89,0.00,,,0.00,WUHU216DAVISVP2,2013-02-10 10:15:00,
2013-02-10 04:20:00,29.2,26.3,29.77,NE,40,0.0,0.0,89,0.00,,,0.00,WUHU216DAVISVP2,2013-02-10 10:20:00,
2013-02-10 04:25:00,29.2,26.3,29.76,NE,40,0.0,0.0,89,0.00,,,0.00,WUHU216DAVISVP2,2013-02-10 10:25:00,
2013-02-10 04:30:00,29.2,26.3,29.76,NNE,30,0.0,0.0,89,0.00,,,0.00,WUHU216DAVISVP2,2013-02-10 10:30:00,
2013-02-10 04:35:00,29.2,26.3,29.77,NE,55,0.0,0.0,89,0.00,,,0.00,WUHU216DAVISVP2,2013-02-10 10:35:00,
2013-02-10 04:40:00,29.3,26.4,29.78,NE,51,0.0,0.0,89,0.00,,,0.00,WUHU216DAVISVP2,2013-02-10 10:40:00,
2013-02-10 04:45:00,29.3,26.4,29.78,NE,52,0.0,0.0,89,0.00,,,0.00,WUHU216DAVISVP2,2013-02-10 10:45:00,
2013-02-10 04:50:00,29.3,26.4,29.77,NE,45,0.0,0.0,89,0.00,,,0.00,WUHU216DAVISVP2,2013-02-10 10:50:00,
2013-02-10 04:55:00,29.3,26.4,29.78,ENE,76,0.0,0.0,89,0.00,,,0.00,WUHU216DAVISVP2,2013-02-10 10:55:00,
2013-02-10 05:00:00,29.3,26.4,29.78,NE,52,0.0,0.0,89,0.00,,,0.00,WUHU216DAVISVP2,2013-02-10 11:00:00,
2013-02-10 05:05:00,29.3,26.4,29.78,NE,41,0.0,0.0,89,0.00,,,0.00,WUHU216DAVISVP2,2013-02-10 11:05:00,
2013-02-10 05:10:00,29.2,26.3,29.77,NE,42,0.0,0.0,89,0.00,,,0.00,WUHU216DAVISVP2,2013-02-10 11:10:00,
2013-02-10 05:15:00,29.2,26.3,29.77,NE,42,0.0,0.0,89,0.00,,,0.00,WUHU216DAVISVP2,2013-02-10 11:15:00,
2013-02-10 05:20:00,29.2,26.3,29.77,NE,42,0.0,0.0,89,0.00,,,0.00,WUHU216DAVISVP2,2013-02-10 11:20:00,
2013-02-10 05:25:00,29.2,26.3,29.76,NE,37,0.0,0.0,89,0.00,,,0.00,WUHU216DAVISVP2,2013-02-10 11:25:00,
2013-02-10 05:30:00,29.2,26.3,29.75,NE,55,0.0,0.0,89,0.00,,,0.00,WUHU216DAVISVP2,2013-02-10 11:30:00,
2013-02-10 05:35:00,29.2,26.3,29.75,NE,55,0.0,0.0,89,0.00,,,0.00,WUHU216DAVISVP2,2013-02-10 11:35:00,
2013-02-10 05:40:00,29.2,26.3,29.76,NE,47,0.0,0.0,89,0.00,,,0.00,WUHU216DAVISVP2,2013-02-10 11:40:00,
2013-02-10 05:45:00,29.2,26.3,29.75,NE,48,0.0,0.0,89,0.00,,,0.00,WUHU216DAVISVP2,2013-02-10 11:45:00,
2013-02-10 05:50:00,29.2,26.3,29.75,NE,47,0.0,0.0,89,0.00,,,0.00,WUHU216DAVISVP2,2013-02-10 11:50:00,
2013-02-10 05:55:00,29.2,26.3,29.76,NE,46,0.0,0.0,89,0.00,,,0.00,WUHU216DAVISVP2,2013-02-10 11:55:00,
2013-02-10 06:00:00,29.2,26.3,29.76,NE,49,0.0,0.0,89,0.00,,,0.00,WUHU216DAVISVP2,2013-02-10 12:00:00,
2013-02-10 06:05:00,29.2,26.3,29.75,NE,39,0.0,0.0,89,0.00,,,0.00,WUHU216DAVISVP2,2013-02-10 12:05:00,
2013-02-10 06:10:00,29.2,26.3,29.75,NE,39,0.0,0.0,89,0.00,,,0.00,WUHU216DAVISVP2,2013-02-10 12:10:00,
2013-02-10 06:15:00,29.2,26.3,29.75,NE,36,0.0,0.0,89,0.00,,,0.00,WUHU216DAVISVP2,2013-02-10 12:15:00,
2013-02-10 06:20:00,29.2,26.3,29.75,NE,36,0.0,0.0,89,0.00,,,0.00,WUHU216DAVISVP2,2013-02-10 12:20:00,
2013-02-10 06:25:00,29.2,26.3,29.74,NE,38,0.0,0.0,89,0.00,,,0.00,WUHU216DAVISVP2,2013-02-10 12:25:00,
2013-02-10 06:30:00,29.1,26.2,29.74,NNE,28,0.0,0.0,89,0.00,,,0.00,WUHU216DAVISVP2,2013-02-10 12:30:00,
2013-02-10 06:35:00,29.1,26.2,29.74,NNE,28,0.0,0.0,89,0.00,,,0.00,WUHU216DAVISVP2,2013-02-10 12:35:00,
2013-02-10 06:40:00,29.1,26.2,29.74,NNE,28,0.0,0.0,89,0.00,,,0.00,WUHU216DAVISVP2,2013-02-10 12:40:00,
2013-02-10 06:45:00,29.0,26.1,29.74,NNE,22,0.0,0.0,89,0.00,,,0.00,WUHU216DAVISVP2,2013-02-10 12:45:00,
2013-02-10 06:50:00,29.1,26.2,29.74,North,5,0.0,1.0,89,0.00,,,0.00,WUHU216DAVISVP2,2013-02-10 12:50:00,
2013-02-10 06:55:00,29.1,26.2,29.74,NNE,13,0.0,1.0,89,0.00,,,0.00,WUHU216DAVISVP2,2013-02-10 12:55:00,
2013-02-10 07:00:00,29.1,26.2,29.74,NNE,13,0.0,0.0,89,0.00,,,0.00,WUHU216DAVISVP2,2013-02-10 13:00:00,
2013-02-10 07:05:00,29.1,26.2,29.74,NNE,13,0.0,0.0,89,0.00,,,0.00,WUHU216DAVISVP2,2013-02-10 13:05:00,
2013-02-10 07:10:00,29.1,26.2,29.73,NNE,24,0.0,0.0,89,0.00,,,0.00,WUHU216DAVISVP2,2013-02-10 13:10:00,
2013-02-10 07:15:00,29.0,26.1,29.73,NE,36,0.0,0.0,89,0.00,,,0.00,WUHU216DAVISVP2,2013-02-10 13:15:00,
2013-02-10 07:20:00,29.0,26.1,29.73,NNE,25,0.0,0.0,89,0.00,,,0.00,WUHU216DAVISVP2,2013-02-10 13:20:00,
2013-02-10 07:25:00,28.9,26.0,29.73,NNE,19,0.0,0.0,89,0.00,,,0.00,WUHU216DAVISVP2,2013-02-10 13:25:00,
2013-02-10 07:30:00,28.9,26.0,29.72,NNE,21,0.0,0.0,89,0.00,,,0.00,WUHU216DAVISVP2,2013-02-10 13:30:00,
2013-02-10 07:35:00,28.8,25.9,29.72,NE,45,0.0,0.0,89,0.00,,,0.00,WUHU216DAVISVP2,2013-02-10 13:35:00,
2013-02-10 07:40:00,28.8,25.9,29.72,NNE,21,0.0,0.0,89,0.00,,,0.00,WUHU216DAVISVP2,2013-02-10 13:40:00,
2013-02-10 07:45:00,28.8,25.9,29.71,NNE,22,0.0,0.0,89,0.00,,,0.00,WUHU216DAVISVP2,2013-02-10 13:45:00,
2013-02-10 07:50:00,28.8,25.9,29.71,North,360,0.0,0.0,89,0.00,,,0.00,WUHU216DAVISVP2,2013-02-10 13:50:00,
2013-02-10 07:55:00,28.8,25.9,29.71,NE,42,0.0,0.0,89,0.00,,,0.00,WUHU216DAVISVP2,2013-02-10 13:55:00,
2013-02-10 08:00:00,28.8,25.9,29.71,NE,45,0.0,0.0,89,0.00,,,0.00,WUHU216DAVISVP2,2013-02-10 14:00:00,
2013-02-10 08:05:00,28.8,25.9,29.70,NNE,20,0.0,4.0,89,0.00,,,0.00,WUHU216DAVISVP2,2013-02-10 14:05:00,
2013-02-10 08:10:00,28.8,25.9,29.71,NNE,13,0.0,4.0,89,0.00,,,0.00,WUHU216DAVISVP2,2013-02-10 14:10:00,
2013-02-10 08:15:00,28.8,25.9,29.70,NNE,33,0.0,0.0,89,0.00,,,0.00,WUHU216DAVISVP2,2013-02-10 14:15:00,
2013-02-10 08:20:00,28.8,25.9,29.71,NE,43,0.0,3.0,89,0.00,,,0.00,WUHU216DAVISVP2,2013-02-10 14:20:00,
2013-02-10 08:25:00,28.8,25.9,29.71,ENE,75,0.0,3.0,89,0.00,,,0.00,WUHU216DAVISVP2,2013-02-10 14:25:00,
2013-02-10 08:30:00,28.8,25.9,29.71,NE,34,0.0,0.0,89,0.00,,,0.00,WUHU216DAVISVP2,2013-02-10 14:30:00,
2013-02-10 08:35:00,28.8,25.9,29.71,NE,40,0.0,0.0,89,0.00,,,0.00,WUHU216DAVISVP2,2013-02-10 14:35:00,
2013-02-10 08:40:00,28.8,25.9,29.71,NNE,26,0.0,0.0,89,0.00,,,0.00,WUHU216DAVISVP2,2013-02-10 14:40:00,
2013-02-10 08:45:00,28.8,25.9,29.71,NNE,24,0.0,0.0,89,0.00,,,0.00,WUHU216DAVISVP2,2013-02-10 14:45:00,
2013-02-10 08:50:00,28.8,25.9,29.71,NNE,14,0.0,0.0,89,0.00,,,0.00,WUHU216DAVISVP2,2013-02-10 14:50:00,
2013-02-10 08:55:00,28.8,25.9,29.71,NNE,26,0.0,1.0,89,0.00,,,0.00,WUHU216DAVISVP2,2013-02-10 14:55:00,
2013-02-10 09:00:00,28.8,25.9,29.71,NNE,28,0.0,1.0,89,0.00,,,0.00,WUHU216DAVISVP2,2013-02-10 15:00:00,
2013-02-10 09:05:00,28.8,25.9,29.70,NNE,30,0.0,0.0,89,0.00,,,0.00,WUHU216DAVISVP2,2013-02-10 15:05:00,
2013-02-10 09:10:00,28.8,25.9,29.70,North,11,0.0,0.0,89,0.00,,,0.00,WUHU216DAVISVP2,2013-02-10 15:10:00,
2013-02-10 09:15:00,28.8,25.9,29.70,NE,46,0.0,5.0,89,0.00,,,0.00,WUHU216DAVISVP2,2013-02-10 15:15:00,
2013-02-10 09:20:00,28.8,25.9,29.70,NNE,26,4.0,5.0,89,0.00,,,0.00,WUHU216DAVISVP2,2013-02-10 15:20:00,
2013-02-10 09:25:00,28.8,25.9,29.70,NNE,26,0.0,5.0,89,0.00,,,0.00,WUHU216DAVISVP2,2013-02-10 15:25:00,
2013-02-10 09:30:00,28.8,25.9,29.70,NNE,32,1.0,4.0,89,0.00,,,0.00,WUHU216DAVISVP2,2013-02-10 15:30:00,
2013-02-10 09:35:00,28.7,25.8,29.70,NNE,19,3.0,5.0,89,0.00,,,0.00,WUHU216DAVISVP2,2013-02-10 15:35:00,
2013-02-10 09:40:00,28.7,25.8,29.70,North,5,4.0,6.0,89,0.00,,,0.00,WUHU216DAVISVP2,2013-02-10 15:40:00,
2013-02-10 09:45:00,28.7,25.8,29.69,NNE,24,0.0,6.0,89,0.00,,,0.00,WUHU216DAVISVP2,2013-02-10 15:45:00,
2013-02-10 09:50:00,28.7,25.8,29.67,North,5,4.0,7.0,89,0.00,,,0.00,WUHU216DAVISVP2,2013-02-10 15:50:00,
2013-02-10 09:55:00,28.7,25.8,29.68,NNE,14,2.0,7.0,89,0.00,,,0.00,WUHU216DAVISVP2,2013-02-10 15:55:00,
2013-02-10 10:00:00,28.7,25.8,29.70,North,9,0.0,6.0,89,0.00,,,0.00,WUHU216DAVISVP2,2013-02-10 16:00:00,
2013-02-10 10:05:00,28.7,25.8,29.70,NE,38,0.0,2.0,89,0.00,,,0.00,WUHU216DAVISVP2,2013-02-10 16:05:00,
2013-02-10 10:10:00,28.6,25.7,29.70,NNE,19,0.0,6.0,89,0.00,,,0.00,WUHU216DAVISVP2,2013-02-10 16:10:00,
2013-02-10 10:15:00,28.6,25.7,29.70,North,10,0.0,6.0,89,0.00,,,0.00,WUHU216DAVISVP2,2013-02-10 16:15:00,
2013-02-10 10:20:00,28.6,25.7,29.70,NNE,24,0.0,6.0,89,0.00,,,0.00,WUHU216DAVISVP2,2013-02-10 16:20:00,
2013-02-10 10:25:00,28.5,25.6,29.70,NNE,25,0.0,6.0,89,0.00,,,0.00,WUHU216DAVISVP2,2013-02-10 16:25:00,
2013-02-10 10:30:00,28.5,25.6,29.69,North,355,3.0,6.0,89,0.00,,,0.00,WUHU216DAVISVP2,2013-02-10 16:30:00,
2013-02-10 10:35:00,28.5,25.6,29.68,NNE,15,0.0,5.0,89,0.00,,,0.00,WUHU216DAVISVP2,2013-02-10 16:35:00,
2013-02-10 10:40:00,28.5,25.6,29.68,North,355,4.0,7.0,89,0.00,,,0.00,WUHU216DAVISVP2,2013-02-10 16:40:00,
2013-02-10 10:45:00,28.5,25.6,29.67,NNE,24,2.0,7.0,89,0.00,,,0.00,WUHU216DAVISVP2,2013-02-10 16:45:00,
2013-02-10 10:50:00,28.4,25.5,29.66,NNE,19,3.0,7.0,89,0.00,,,0.00,WUHU216DAVISVP2,2013-02-10 16:50:00,
2013-02-10 10:55:00,28.4,25.5,29.66,North,5,6.0,7.0,89,0.00,,,0.00,WUHU216DAVISVP2,2013-02-10 16:55:00,
2013-02-10 11:00:00,28.3,25.4,29.66,North,355,6.0,11.0,89,0.00,,,0.00,WUHU216DAVISVP2,2013-02-10 17:00:00,
2013-02-10 11:05:00,28.3,25.4,29.66,NE,51,3.0,11.0,89,0.00,,,0.00,WUHU216DAVISVP2,2013-02-10 17:05:00,
2013-02-10 11:10:00,28.2,25.3,29.67,ENE,65,3.0,10.0,89,0.00,,,0.00,WUHU216DAVISVP2,2013-02-10 17:10:00,
2013-02-10 11:16:00,28.2,25.3,29.67,NNE,28,2.0,10.0,89,0.00,,,0.00,WUHU216DAVISVP2,2013-02-10 17:16:00,
2013-02-10 11:21:00,28.2,25.3,29.67,NE,49,2.0,6.0,89,0.00,,,0.00,WUHU216DAVISVP2,2013-02-10 17:21:00,
2013-02-10 11:26:00,28.1,25.2,29.66,NNE,32,3.0,12.0,89,0.00,,,0.00,WUHU216DAVISVP2,2013-02-10 17:26:00,
2013-02-10 11:31:00,28.1,25.2,29.66,NE,38,3.0,13.0,89,0.00,,,0.00,WUHU216DAVISVP2,2013-02-10 17:31:00,
2013-02-10 11:36:00,28.0,25.1,29.65,North,360,4.0,13.0,89,0.00,,,0.00,WUHU216DAVISVP2,2013-02-10 17:36:00,
2013-02-10 11:41:00,28.0,25.1,29.64,NE,40,5.0,13.0,89,0.00,,,0.00,WUHU216DAVISVP2,2013-02-10 17:41:00,
2013-02-10 11:46:00,28.0,25.1,29.63,NNE,21,6.0,15.0,89,0.00,,,0.00,WUHU216DAVISVP2,2013-02-10 17:46:00,
2013-02-10 11:51:00,27.9,25.0,29.63,NNE,30,9.0,15.0,89,0.00,,,0.00,WUHU216DAVISVP2,2013-02-10 17:51:00,
2013-02-10 11:56:00,27.9,25.0,29.62,NNE,32,5.0,14.0,89,0.00,,,0.00,WUHU216DAVISVP2,2013-02-10 17:56:00,
2013-02-10 12:01:00,27.9,25.0,29.62,NNE,21,7.0,16.0,89,0.00,,,0.00,WUHU216DAVISVP2,2013-02-10 18:01:00,
2013-02-10 12:06:00,27.9,25.0,29.62,NNE,17,6.0,16.0,89,0.00,,,0.00,WUHU216DAVISVP2,2013-02-10 18:06:00,
2013-02-10 12:11:00,27.9,25.0,29.61,North,360,6.0,13.0,89,0.00,,,0.00,WUHU216DAVISVP2,2013-02-10 18:11:00,
2013-02-10 12:16:00,27.9,25.0,29.61,North,5,13.0,17.0,89,0.00,,,0.00,WUHU216DAVISVP2,2013-02-10 18:16:00,
2013-02-10 12:21:00,27.9,25.0,29.60,NNE,30,6.0,17.0,89,0.00,,,0.00,WUHU216DAVISVP2,2013-02-10 18:21:00,
2013-02-10 12:26:00,27.8,24.9,29.59,NNE,22,9.0,17.0,89,0.00,,,0.00,WUHU216DAVISVP2,2013-02-10 18:26:00,
2013-02-10 12:31:00,27.8,24.9,29.58,North,360,12.0,16.0,89,0.00,,,0.00,WUHU216DAVISVP2,2013-02-10 18:31:00,
2013-02-10 12:36:00,27.8,24.9,29.57,North,5,10.0,17.0,89,0.00,,,0.00,WUHU216DAVISVP2,2013-02-10 18:36:00,
2013-02-10 12:41:00,27.7,24.8,29.56,NNE,15,7.0,22.0,89,0.00,,,0.00,WUHU216DAVISVP2,2013-02-10 18:41:00,
2013-02-10 12:46:00,27.7,24.8,29.56,North,9,9.0,22.0,89,0.00,,,0.00,WUHU216DAVISVP2,2013-02-10 18:46:00,
2013-02-10 12:51:00,27.8,24.9,29.57,North,360,12.0,20.0,89,0.00,,,0.00,WUHU216DAVISVP2,2013-02-10 18:51:00,
2013-02-10 12:56:00,27.8,24.9,29.56,NNE,17,10.0,19.0,89,0.00,,,0.00,WUHU216DAVISVP2,2013-02-10 18:56:00,
2013-02-10 13:01:00,27.8,24.9,29.57,North,11,7.0,18.0,89,0.00,,,0.00,WUHU216DAVISVP2,2013-02-10 19:01:00,
2013-02-10 13:06:00,27.7,24.8,29.56,NNE,13,11.0,20.0,89,0.00,,,0.00,WUHU216DAVISVP2,2013-02-10 19:06:00,
2013-02-10 13:11:00,27.7,24.8,29.55,NNE,32,8.0,20.0,89,0.00,,,0.00,WUHU216DAVISVP2,2013-02-10 19:11:00,
2013-02-10 13:16:00,27.7,24.8,29.55,NNE,22,9.0,20.0,89,0.00,,,0.00,WUHU216DAVISVP2,2013-02-10 19:16:00,
2013-02-10 13:21:00,27.7,24.8,29.55,North,360,18.0,20.0,89,0.00,,,0.00,WUHU216DAVISVP2,2013-02-10 19:21:00,
2013-02-10 13:26:00,27.7,24.8,29.55,North,5,10.0,19.0,89,0.00,,,0.00,WUHU216DAVISVP2,2013-02-10 19:26:00,
2013-02-10 13:31:00,27.7,24.8,29.55,NNE,23,5.0,20.0,89,0.00,,,0.00,WUHU216DAVISVP2,2013-02-10 19:31:00,
2013-02-10 13:36:00,27.7,24.8,29.54,NE,34,7.0,23.0,89,0.00,,,0.00,WUHU216DAVISVP2,2013-02-10 19:36:00,
2013-02-10 13:41:00,27.6,24.7,29.54,NE,36,9.0,23.0,89,0.00,,,0.00,WUHU216DAVISVP2,2013-02-10 19:41:00,
2013-02-10 13:46:00,27.6,24.7,29.54,NNE,17,8.0,19.0,89,0.00,,,0.00,WUHU216DAVISVP2,2013-02-10 19:46:00,
2013-02-10 13:51:00,27.6,24.7,29.55,NNE,21,11.0,19.0,89,0.00,,,0.00,WUHU216DAVISVP2,2013-02-10 19:51:00,
2013-02-10 13:56:00,27.6,24.7,29.55,NE,44,4.0,19.0,89,0.00,,,0.00,WUHU216DAVISVP2,2013-02-10 19:56:00,
2013-02-10 14:01:00,27.5,24.6,29.55,NNE,13,7.0,20.0,89,0.00,,,0.00,WUHU216DAVISVP2,2013-02-10 20:01:00,
2013-02-10 14:06:00,27.5,24.6,29.54,NNE,21,10.0,20.0,89,0.00,,,0.00,WUHU216DAVISVP2,2013-02-10 20:06:00,
2013-02-10 14:11:00,27.5,24.6,29.54,NNE,12,15.0,18.0,89,0.00,,,0.00,WUHU216DAVISVP2,2013-02-10 20:11:00,
2013-02-10 14:16:00,27.4,24.5,29.53,NNE,25,11.0,18.0,89,0.00,,,0.00,WUHU216DAVISVP2,2013-02-10 20:16:00,
2013-02-10 14:21:00,27.3,24.4,29.53,NNE,22,5.0,18.0,89,0.00,,,0.00,WUHU216DAVISVP2,2013-02-10 20:21:00,
2013-02-10 14:26:00,27.3,24.4,29.53,North,5,7.0,18.0,89,0.00,,,0.00,WUHU216DAVISVP2,2013-02-10 20:26:00,
2013-02-10 14:31:00,27.3,24.4,29.54,North,10,10.0,21.0,89,0.00,,,0.00,WUHU216DAVISVP2,2013-02-10 20:31:00,
2013-02-10 14:36:00,27.3,24.4,29.54,North,11,12.0,21.0,89,0.00,,,0.00,WUHU216DAVISVP2,2013-02-10 20:36:00,
2013-02-10 14:41:00,27.3,24.4,29.54,NNE,24,11.0,18.0,89,0.00,,,0.00,WUHU216DAVISVP2,2013-02-10 20:41:00,
2013-02-10 14:46:00,27.3,24.4,29.54,NNE,26,12.0,18.0,89,0.00,,,0.00,WUHU216DAVISVP2,2013-02-10 20:46:00,
2013-02-10 14:51:00,27.3,24.4,29.54,North,5,6.0,18.0,89,0.00,,,0.00,WUHU216DAVISVP2,2013-02-10 20:51:00,
2013-02-10 14:56:00,27.3,24.4,29.55,NE,45,13.0,17.0,89,0.00,,,0.00,WUHU216DAVISVP2,2013-02-10 20:56:00,
2013-02-10 15:01:00,27.3,24.4,29.55,North,360,13.0,18.0,89,0.00,,,0.00,WUHU216DAVISVP2,2013-02-10 21:01:00,
2013-02-10 15:06:00,27.2,24.3,29.55,NNE,29,10.0,18.0,89,0.00,,,0.00,WUHU216DAVISVP2,2013-02-10 21:06:00,
2013-02-10 15:11:00,27.2,24.3,29.56,North,9,6.0,16.0,89,0.00,,,0.00,WUHU216DAVISVP2,2013-02-10 21:11:00,
2013-02-10 15:16:00,27.2,24.3,29.56,NNE,14,12.0,19.0,89,0.00,,,0.00,WUHU216DAVISVP2,2013-02-10 21:16:00,
2013-02-10 15:21:00,27.2,24.3,29.56,NNE,29,13.0,21.0,89,0.00,,,0.00,WUHU216DAVISVP2,2013-02-10 21:21:00,
2013-02-10 15:26:00,27.2,24.3,29.56,NNE,16,16.0,21.0,89,0.00,,,0.00,WUHU216DAVISVP2,2013-02-10 21:26:00,
2013-02-10 15:31:00,27.2,24.3,29.56,NNE,18,6.0,21.0,89,0.00,,,0.00,WUHU216DAVISVP2,2013-02-10 21:31:00,
2013-02-10 15:36:00,27.2,24.3,29.57,North,10,10.0,17.0,89,0.00,,,0.00,WUHU216DAVISVP2,2013-02-10 21:36:00,
2013-02-10 15:41:00,27.2,24.3,29.57,NNE,21,14.0,19.0,89,0.00,,,0.00,WUHU216DAVISVP2,2013-02-10 21:41:00,
2013-02-10 15:46:00,27.1,24.2,29.57,North,5,12.0,21.0,89,0.00,,,0.00,WUHU216DAVISVP2,2013-02-10 21:46:00,
2013-02-10 15:51:00,27.2,24.3,29.57,North,9,12.0,21.0,89,0.00,,,0.00,WUHU216DAVISVP2,2013-02-10 21:51:00,
2013-02-10 15:56:00,27.2,24.3,29.57,NNE,29,5.0,17.0,89,0.00,,,0.00,WUHU216DAVISVP2,2013-02-10 21:56:00,
2013-02-10 16:01:00,27.3,24.4,29.57,NE,40,6.0,16.0,89,0.00,,,0.00,WUHU216DAVISVP2,2013-02-10 22:01:00,
2013-02-10 16:06:00,27.3,24.4,29.57,NNE,16,11.0,20.0,89,0.00,,,0.00,WUHU216DAVISVP2,2013-02-10 22:06:00,
2013-02-10 16:11:00,27.3,24.4,29.57,North,11,6.0,20.0,89,0.00,,,0.00,WUHU216DAVISVP2,2013-02-10 22:11:00,
2013-02-10 16:16:00,27.3,24.4,29.57,NNE,30,6.0,18.0,89,0.00,,,0.00,WUHU216DAVISVP2,2013-02-10 22:16:00,
2013-02-10 16:21:00,27.3,24.4,29.57,NNE,14,5.0,18.0,89,0.00,,,0.00,WUHU216DAVISVP2,2013-02-10 22:21:00,
2013-02-10 16:26:00,27.3,24.4,29.58,NNE,13,14.0,17.0,89,0.00,,,0.00,WUHU216DAVISVP2,2013-02-10 22:26:00,
2013-02-10 16:31:00,27.2,24.3,29.57,North,360,12.0,21.0,89,0.00,,,0.00,WUHU216DAVISVP2,2013-02-10 22:31:00,
2013-02-10 16:36:00,27.2,24.3,29.57,North,360,7.0,21.0,89,0.00,,,0.00,WUHU216DAVISVP2,2013-02-10 22:36:00,
2013-02-10 16:41:00,27.2,24.3,29.57,NNE,13,13.0,24.0,89,0.00,,,0.00,WUHU216DAVISVP2,2013-02-10 22:41:00,
2013-02-10 16:46:00,27.2,24.3,29.57,NNE,24,15.0,24.0,89,0.00,,,0.00,WUHU216DAVISVP2,2013-02-10 22:46:00,
2013-02-10 16:51:00,27.3,24.4,29.57,North,5,13.0,22.0,89,0.00,,,0.00,WUHU216DAVISVP2,2013-02-10 22:51:00,
2013-02-10 16:56:00,27.3,24.4,29.58,NNE,25,7.0,21.0,89,0.00,,,0.00,WUHU216DAVISVP2,2013-02-10 22:56:00,
2013-02-10 17:01:00,27.2,24.3,29.58,North,360,17.0,21.0,89,0.00,,,0.00,WUHU216DAVISVP2,2013-02-10 23:01:00,
2013-02-10 17:06:00,27.3,24.4,29.57,North,5,13.0,22.0,89,0.00,,,0.00,WUHU216DAVISVP2,2013-02-10 23:06:00,
2013-02-10 17:11:00,27.2,24.3,29.58,North,360,6.0,25.0,89,0.00,,,0.00,WUHU216DAVISVP2,2013-02-10 23:11:00,
2013-02-10 17:16:00,27.2,24.3,29.58,NNE,13,13.0,25.0,89,0.00,,,0.00,WUHU216DAVISVP2,2013-02-10 23:16:00,
2013-02-10 17:21:00,27.2,24.3,29.58,NNE,19,13.0,23.0,89,0.00,,,0.00,WUHU216DAVISVP2,2013-02-10 23:21:00,
2013-02-10 17:26:00,27.2,24.3,29.59,NNE,25,19.0,23.0,89,0.00,,,0.00,WUHU216DAVISVP2,2013-02-10 23:26:00,
2013-02-10 17:31:00,27.2,24.3,29.59,NE,43,14.0,23.0,89,0.00,,,0.00,WUHU216DAVISVP2,2013-02-10 23:31:00,
2013-02-10 17:36:00,27.2,24.3,29.59,North,360,3.0,22.0,89,0.00,,,0.00,WUHU216DAVISVP2,2013-02-10 23:36:00,
2013-02-10 17:41:00,27.2,24.3,29.59,North,355,8.0,29.0,89,0.00,,,0.00,WUHU216DAVISVP2,2013-02-10 23:41:00,
2013-02-10 17:46:00,27.3,24.4,29.59,NNE,22,6.0,29.0,89,0.00,,,0.00,WUHU216DAVISVP2,2013-02-10 23:46:00,
2013-02-10 17:51:00,27.3,24.4,29.59,NNE,19,16.0,26.0,89,0.00,,,0.00,WUHU216DAVISVP2,2013-02-10 23:51:00,
2013-02-10 17:56:00,27.3,24.4,29.59,North,350,7.0,26.0,89,0.00,,,0.00,WUHU216DAVISVP2,2013-02-10 23:56:00,
2013-02-10 18:01:00,27.3,24.4,29.60,NNW,344,9.0,24.0,89,0.00,,,0.00,WUHU216DAVISVP2,2013-02-11 00:01:00,
2013-02-10 18:06:00,27.3,24.4,29.60,North,11,5.0,19.0,89,0.00,,,0.00,WUHU216DAVISVP2,2013-02-11 00:06:00,
2013-02-10 18:11:00,27.2,24.3,29.61,NNE,27,11.0,18.0,89,0.00,,,0.00,WUHU216DAVISVP2,2013-02-11 00:11:00,
2013-02-10 18:16:00,27.2,24.3,29.61,North,360,10.0,19.0,89,0.00,,,0.00,WUHU216DAVISVP2,2013-02-11 00:16:00,
2013-02-10 18:21:00,27.1,24.2,29.61,NNE,19,12.0,25.0,89,0.00,,,0.00,WUHU216DAVISVP2,2013-02-11 00:21:00,
2013-02-10 18:26:00,27.0,24.1,29.61,NNE,14,4.0,25.0,89,0.00,,,0.00,WUHU216DAVISVP2,2013-02-11 00:26:00,
2013-02-10 18:31:00,27.0,24.1,29.61,NNE,29,12.0,23.0,89,0.00,,,0.00,WUHU216DAVISVP2,2013-02-11 00:31:00,
2013-02-10 18:36:00,26.9,24.0,29.61,North,355,7.0,28.0,89,0.00,,,0.00,WUHU216DAVISVP2,2013-02-11 00:36:00,
2013-02-10 18:41:00,26.8,23.9,29.61,NNE,15,15.0,28.0,89,0.00,,,0.00,WUHU216DAVISVP2,2013-02-11 00:41:00,
2013-02-10 18:46:00,26.8,23.9,29.61,North,355,8.0,25.0,89,0.00,,,0.00,WUHU216DAVISVP2,2013-02-11 00:46:00,
2013-02-10 18:51:00,26.8,23.9,29.61,NNE,13,2.0,26.0,89,0.00,,,0.00,WUHU216DAVISVP2,2013-02-11 00:51:00,
2013-02-10 18:56:00,26.7,23.8,29.61,NNE,26,14.0,26.0,89,0.00,,,0.00,WUHU216DAVISVP2,2013-02-11 00:56:00,
2013-02-10 19:01:00,26.6,23.8,29.61,NNW,348,16.0,23.0,89,0.00,,,0.00,WUHU216DAVISVP2,2013-02-11 01:01:00,
2013-02-10 19:06:00,26.6,23.8,29.62,NNE,17,8.0,24.0,89,0.00,,,0.00,WUHU216DAVISVP2,2013-02-11 01:06:00,
2013-02-10 19:11:00,26.6,23.8,29.62,North,350,15.0,24.0,89,0.00,,,0.00,WUHU216DAVISVP2,2013-02-11 01:11:00,
2013-02-10 19:16:00,26.7,23.8,29.62,NNW,343,12.0,28.0,89,0.00,,,0.00,WUHU216DAVISVP2,2013-02-11 01:16:00,
2013-02-10 19:21:00,26.6,23.8,29.62,NNE,14,14.0,28.0,89,0.00,,,0.00,WUHU216DAVISVP2,2013-02-11 01:21:00,
2013-02-10 19:26:00,26.7,23.8,29.62,North,5,7.0,23.0,89,0.00,,,0.00,WUHU216DAVISVP2,2013-02-11 01:26:00,
2013-02-10 19:31:00,26.7,23.8,29.62,NNE,12,2.0,23.0,89,0.00,,,0.00,WUHU216DAVISVP2,2013-02-11 01:31:00,
2013-02-10 19:36:00,26.7,23.8,29.63,NNE,25,17.0,21.0,89,0.00,,,0.00,WUHU216DAVISVP2,2013-02-11 01:36:00,
2013-02-10 19:41:00,26.7,23.8,29.63,North,5,11.0,23.0,89,0.00,,,0.00,WUHU216DAVISVP2,2013-02-11 01:41:00,
2013-02-10 19:46:00,26.6,23.8,29.63,North,5,8.0,23.0,89,0.00,,,0.00,WUHU216DAVISVP2,2013-02-11 01:46:00,
2013-02-10 19:51:00,26.6,23.8,29.63,North,360,15.0,23.0,89,0.00,,,0.00,WUHU216DAVISVP2,2013-02-11 01:51:00,
2013-02-10 19:56:00,26.6,23.8,29.64,NNE,16,3.0,25.0,89,0.00,,,0.00,WUHU216DAVISVP2,2013-02-11 01:56:00,
2013-02-10 20:01:00,26.6,23.8,29.63,NNE,28,15.0,25.0,89,0.00,,,0.00,WUHU216DAVISVP2,2013-02-11 02:01:00,
2013-02-10 20:06:00,26.5,23.7,29.63,NNE,25,5.0,24.0,89,0.00,,,0.00,WUHU216DAVISVP2,2013-02-11 02:06:00,
2013-02-10 20:11:00,26.6,23.8,29.64,North,5,14.0,24.0,89,0.00,,,0.00,WUHU216DAVISVP2,2013-02-11 02:11:00,
2013-02-10 20:16:00,26.6,23.8,29.64,North,355,11.0,21.0,89,0.00,,,0.00,WUHU216DAVISVP2,2013-02-11 02:16:00,
2013-02-10 20:21:00,26.6,23.8,29.64,NNE,13,6.0,22.0,89,0.00,,,0.00,WUHU216DAVISVP2,2013-02-11 02:21:00,
2013-02-10 20:26:00,26.6,23.8,29.64,NNE,12,7.0,22.0,89,0.00,,,0.00,WUHU216DAVISVP2,2013-02-11 02:26:00,
2013-02-10 20:31:00,26.6,23.8,29.64,North,350,11.0,20.0,89,0.00,,,0.00,WUHU216DAVISVP2,2013-02-11 02:31:00,
2013-02-10 20:36:00,26.6,23.8,29.64,NNE,24,11.0,19.0,89,0.00,,,0.00,WUHU216DAVISVP2,2013-02-11 02:36:00,
2013-02-10 20:41:00,26.5,23.7,29.64,North,5,11.0,18.0,89,0.00,,,0.00,WUHU216DAVISVP2,2013-02-11 02:41:00,
2013-02-10 20:46:00,26.6,23.8,29.64,North,5,19.0,19.0,89,0.00,,,0.00,WUHU216DAVISVP2,2013-02-11 02:46:00,
2013-02-10 20:51:00,26.6,23.8,29.64,NNE,30,6.0,20.0,89,0.00,,,0.00,WUHU216DAVISVP2,2013-02-11 02:51:00,
2013-02-10 20:56:00,26.6,23.8,29.64,NNE,16,3.0,20.0,89,0.00,,,0.00,WUHU216DAVISVP2,2013-02-11 02:56:00,
2013-02-10 21:01:00,26.6,23.8,29.65,North,360,10.0,18.0,89,0.00,,,0.00,WUHU216DAVISVP2,2013-02-11 03:01:00,
2013-02-10 21:06:00,26.6,23.8,29.65,NNE,30,10.0,18.0,89,0.00,,,0.00,WUHU216DAVISVP2,2013-02-11 03:06:00,
2013-02-10 21:11:00,26.6,23.8,29.65,NE,40,6.0,21.0,89,0.00,,,0.00,WUHU216DAVISVP2,2013-02-11 03:11:00,
2013-02-10 21:16:00,26.6,23.8,29.65,NNW,341,13.0,21.0,89,0.00,,,0.00,WUHU216DAVISVP2,2013-02-11 03:16:00,
2013-02-10 21:21:00,26.5,23.7,29.66,NNE,18,12.0,19.0,89,0.00,,,0.00,WUHU216DAVISVP2,2013-02-11 03:21:00,
2013-02-10 21:26:00,26.5,23.7,29.65,North,5,10.0,27.0,89,0.00,,,0.00,WUHU216DAVISVP2,2013-02-11 03:26:00,
2013-02-10 21:31:00,26.5,23.7,29.66,NNE,12,12.0,27.0,89,0.00,,,0.00,WUHU216DAVISVP2,2013-02-11 03:31:00,
2013-02-10 21:36:00,26.4,23.6,29.66,North,9,7.0,21.0,89,0.00,,,0.00,WUHU216DAVISVP2,2013-02-11 03:36:00,
2013-02-10 21:41:00,26.3,23.5,29.66,NNE,29,12.0,24.0,89,0.00,,,0.00,WUHU216DAVISVP2,2013-02-11 03:41:00,
2013-02-10 21:46:00,26.4,23.6,29.66,North,11,1.0,24.0,89,0.00,,,0.00,WUHU216DAVISVP2,2013-02-11 03:46:00,
2013-02-10 21:51:00,26.4,23.6,29.66,North,360,11.0,23.0,89,0.00,,,0.00,WUHU216DAVISVP2,2013-02-11 03:51:00,
2013-02-10 21:56:00,26.3,23.5,29.66,NNE,13,11.0,23.0,89,0.00,,,0.00,WUHU216DAVISVP2,2013-02-11 03:56:00,
2013-02-10 22:01:00,26.3,23.5,29.66,North,5,1.0,17.0,89,0.00,,,0.00,WUHU216DAVISVP2,2013-02-11 04:01:00,
2013-02-10 22:06:00,26.4,23.6,29.66,NNE,26,13.0,17.0,89,0.00,,,0.00,WUHU216DAVISVP2,2013-02-11 04:06:00,
2013-02-10 22:11:00,26.4,23.6,29.67,NE,42,6.0,17.0,89,0.00,,,0.00,WUHU216DAVISVP2,2013-02-11 04:11:00,
2013-02-10 22:16:00,26.4,23.6,29.67,NNE,22,7.0,16.0,89,0.00,,,0.00,WUHU216DAVISVP2,2013-02-11 04:16:00,
2013-02-10 22:21:00,26.5,23.7,29.67,NNE,13,7.0,16.0,89,0.00,,,0.00,WUHU216DAVISVP2,2013-02-11 04:21:00,
2013-02-10 22:26:00,26.4,23.6,29.67,NNE,16,7.0,16.0,89,0.00,,,0.00,WUHU216DAVISVP2,2013-02-11 04:26:00,
2013-02-10 22:31:00,26.4,23.6,29.67,NE,36,7.0,15.0,89,0.00,,,0.00,WUHU216DAVISVP2,2013-02-11 04:31:00,
2013-02-10 22:36:00,26.2,23.4,29.67,North,360,2.0,18.0,89,0.00,,,0.00,WUHU216DAVISVP2,2013-02-11 04:36:00,
2013-02-10 22:41:00,26.3,23.5,29.68,NNE,19,1.0,18.0,89,0.00,,,0.00,WUHU216DAVISVP2,2013-02-11 04:41:00,
2013-02-10 22:46:00,26.2,23.4,29.68,NNE,17,6.0,17.0,89,0.00,,,0.00,WUHU216DAVISVP2,2013-02-11 04:46:00,
2013-02-10 22:51:00,26.2,23.4,29.68,North,9,9.0,16.0,89,0.00,,,0.00,WUHU216DAVISVP2,2013-02-11 04:51:00,
2013-02-10 22:56:00,26.2,23.4,29.68,NNE,25,10.0,15.0,89,0.00,,,0.00,WUHU216DAVISVP2,2013-02-11 04:56:00,
2013-02-10 23:00:00,26.2,23.4,29.68,NNE,21,12.0,15.0,89,0.00,,,0.00,WUHU216DAVISVP2,2013-02-11 05:00:00,
2013-02-10 23:05:00,26.1,23.3,29.69,North,5,5.0,15.0,89,0.00,,,0.00,WUHU216DAVISVP2,2013-02-11 05:05:00,
2013-02-10 23:10:00,26.1,23.3,29.69,NNE,15,10.0,13.0,89,0.00,,,0.00,WUHU216DAVISVP2,2013-02-11 05:10:00,
2013-02-10 23:15:00,25.9,23.1,29.69,NNE,30,6.0,13.0,89,0.00,,,0.00,WUHU216DAVISVP2,2013-02-11 05:15:00,
2013-02-10 23:20:00,25.8,23.0,29.70,North,9,4.0,14.0,89,0.00,,,0.00,WUHU216DAVISVP2,2013-02-11 05:20:00,
2013-02-10 23:25:00,25.7,22.9,29.70,North,5,8.0,14.0,89,0.00,,,0.00,WUHU216DAVISVP2,2013-02-11 05:25:00,
2013-02-10 23:30:00,25.6,22.8,29.70,North,11,0.0,20.0,89,0.00,,,0.00,WUHU216DAVISVP2,2013-02-11 05:30:00,
2013-02-10 23:35:00,25.4,22.6,29.70,North,355,1.0,20.0,89,0.00,,,0.00,WUHU216DAVISVP2,2013-02-11 05:35:00,
2013-02-10 23:40:00,25.1,22.3,29.70,NNE,29,6.0,13.0,89,0.00,,,0.00,WUHU216DAVISVP2,2013-02-11 05:40:00,
2013-02-10 23:45:00,24.9,21.8,29.70,NNE,19,0.0,13.0,88,0.00,,,0.00,WUHU216DAVISVP2,2013-02-11 05:45:00,
2013-02-10 23:50:00,24.7,21.6,29.71,West,281,5.0,12.0,88,0.00,,,0.00,WUHU216DAVISVP2,2013-02-11 05:50:00,
2013-02-10 23:55:00,24.6,21.5,29.71,NNE,17,6.0,10.0,88,0.00,,,0.00,WUHU216DAVISVP2,2013-02-11 05:55:00,